SWT5HT EDDP-EYVI

Flight info

Callsign SWT5HT
Flight time 1h 31m
Altitude 27000
Route PENEM1S PENEM Y236 OLBIK L735 LUROS Y621 SUBIX/N0447F350 N858 BOKSU DCT IRKAL
Aircraft B738/M-SDE2E3FGHIJ1RWXY/LB2

Departure

Time 2026-05-05 12:00
Airport Leipzig/Halle Airport (EDDP)

Arrival

Time 2026-05-05 13:31
Airport Vilnius International Airport (EYVI)
Time Latitude Longitude Altitude Speed Heading
2026-05-05 11:32 51.40933 12.23880 466 ft 0 kts 85°
2026-05-05 11:52 51.40932 12.23855 464 ft 4 kts 88°
2026-05-05 11:52 51.40930 12.23812 462 ft 4 kts 77°
2026-05-05 11:52 51.40921 12.23781 465 ft 4 kts 47°
2026-05-05 11:52 51.40901 12.23761 465 ft 4 kts 360°
2026-05-05 11:53 51.40879 12.23763 463 ft 1 kts 355°
2026-05-05 11:55 51.40881 12.23763 465 ft 1 kts 355°
2026-05-05 11:55 51.40911 12.23759 464 ft 7 kts 355°
2026-05-05 11:55 51.40975 12.23751 468 ft 10 kts 355°
2026-05-05 11:55 51.41042 12.23757 469 ft 10 kts 29°
2026-05-05 11:56 51.41060 12.23853 468 ft 9 kts 86°
2026-05-05 11:56 51.41066 12.23956 470 ft 9 kts 85°
2026-05-05 11:56 51.41070 12.24060 470 ft 10 kts 86°
2026-05-05 11:56 51.41076 12.24188 470 ft 13 kts 85°
2026-05-05 11:57 51.41083 12.24328 470 ft 10 kts 85°
2026-05-05 11:57 51.41129 12.24396 471 ft 10 kts
2026-05-05 11:57 51.41191 12.24417 473 ft 7 kts 13°
2026-05-05 11:57 51.41224 12.24430 473 ft 3 kts 13°
2026-05-05 11:58 51.41242 12.24437 473 ft 3 kts 13°
2026-05-05 11:58 51.41276 12.24450 474 ft 8 kts 13°
2026-05-05 11:58 51.41334 12.24470 475 ft 4 kts
2026-05-05 11:58 51.41346 12.24440 472 ft 4 kts 278°
2026-05-05 11:59 51.41346 12.24387 475 ft 6 kts 266°
2026-05-05 11:59 51.41332 12.24099 470 ft 60 kts 265°
2026-05-05 11:59 51.41281 12.23028 466 ft 131 kts 266°
2026-05-05 11:59 51.41200 12.21329 572 ft 176 kts 268°
2026-05-05 12:00 51.41103 12.19398 1462 ft 173 kts 268°
2026-05-05 12:00 51.41008 12.17391 2047 ft 196 kts 267°
2026-05-05 12:00 51.40879 12.15070 2465 ft 218 kts 266°
2026-05-05 12:00 51.40737 12.12620 3063 ft 223 kts 268°
2026-05-05 12:01 51.41038 12.10222 3756 ft 222 kts 303°
2026-05-05 12:01 51.41932 12.08796 4262 ft 228 kts 330°
2026-05-05 12:01 51.43290 12.08163 4609 ft 242 kts 355°
2026-05-05 12:01 51.45063 12.08095 4963 ft 267 kts 359°
2026-05-05 12:02 51.46945 12.08147 5742 ft 273 kts 359°
2026-05-05 12:02 51.48859 12.08189 6462 ft 277 kts 359°
2026-05-05 12:02 51.50663 12.08207 7008 ft 280 kts 358°
2026-05-05 12:02 51.52464 12.08214 7734 ft 284 kts 358°
2026-05-05 12:03 51.54457 12.08241 8557 ft 288 kts 359°
2026-05-05 12:03 51.56478 12.08308 9359 ft 293 kts 359°
2026-05-05 12:03 51.58538 12.08384 10109 ft 299 kts 359°
2026-05-05 12:03 51.60371 12.08448 10378 ft 319 kts 359°
2026-05-05 12:04 51.61623 12.08490 10485 ft 332 kts 359°
2026-05-05 12:04 51.64010 12.08568 10755 ft 352 kts 359°
2026-05-05 12:04 51.66492 12.08790 11334 ft 363 kts
2026-05-05 12:04 51.68719 12.10216 12064 ft 368 kts 33°
2026-05-05 12:05 51.70346 12.12585 12741 ft 371 kts 52°
2026-05-05 12:05 51.71544 12.16214 13461 ft 375 kts 75°
2026-05-05 12:05 51.71980 12.19960 14171 ft 378 kts 83°
2026-05-05 12:05 51.72224 12.22823 14585 ft 384 kts 84°
2026-05-05 12:06 51.72599 12.27600 15276 ft 390 kts 84°
2026-05-05 12:06 51.72936 12.31964 15887 ft 394 kts 84°
2026-05-05 12:06 51.73285 12.36381 16478 ft 399 kts 84°
2026-05-05 12:06 51.73619 12.40507 17030 ft 404 kts 84°
2026-05-05 12:07 51.73945 12.44472 17605 ft 409 kts 84°
2026-05-05 12:07 51.74326 12.49055 18191 ft 414 kts 84°
2026-05-05 12:07 51.74710 12.53672 18714 ft 417 kts 84°
2026-05-05 12:07 51.75096 12.58322 19270 ft 419 kts 84°
2026-05-05 12:08 51.75483 12.62998 19800 ft 421 kts 84°
2026-05-05 12:08 51.75660 12.65153 20049 ft 422 kts 84°
2026-05-05 12:08 51.76046 12.69869 20564 ft 425 kts 84°
2026-05-05 12:08 51.76426 12.74529 21002 ft 429 kts 84°
2026-05-05 12:09 51.76758 12.78610 21366 ft 433 kts 84°
2026-05-05 12:09 51.77163 12.83637 21889 ft 436 kts 84°
2026-05-05 12:09 51.77533 12.87780 22330 ft 438 kts 80°
2026-05-05 12:09 51.78221 12.91873 22740 ft 442 kts 71°
2026-05-05 12:10 51.79463 12.96434 23209 ft 446 kts 61°
2026-05-05 12:10 51.81039 13.00766 23671 ft 449 kts 59°
2026-05-05 12:10 51.82675 13.05087 24074 ft 452 kts 58°
2026-05-05 12:10 51.84282 13.09304 24462 ft 455 kts 58°
2026-05-05 12:11 51.85868 13.13486 24840 ft 458 kts 59°
2026-05-05 12:11 51.87527 13.17906 25228 ft 461 kts 59°
2026-05-05 12:11 51.89171 13.22326 25586 ft 464 kts 59°
2026-05-05 12:11 51.90833 13.26825 25948 ft 467 kts 59°
2026-05-05 12:12 51.92499 13.31360 26283 ft 470 kts 59°
2026-05-05 12:12 51.94067 13.35642 26597 ft 473 kts 59°
2026-05-05 12:12 51.95517 13.39607 26895 ft 475 kts 59°
2026-05-05 12:12 51.97205 13.44235 27240 ft 478 kts 59°
2026-05-05 12:13 51.98900 13.48886 27588 ft 480 kts 59°
2026-05-05 12:13 52.00604 13.53571 27916 ft 484 kts 59°
2026-05-05 12:13 52.02189 13.57934 28186 ft 487 kts 59°
2026-05-05 12:13 52.03851 13.62517 28486 ft 490 kts 59°
2026-05-05 12:14 52.05581 13.67298 28810 ft 492 kts 59°
2026-05-05 12:14 52.07150 13.71641 29092 ft 494 kts 59°
2026-05-05 12:14 52.08890 13.76466 29382 ft 496 kts 59°
2026-05-05 12:14 52.10048 13.79680 29570 ft 498 kts 59°
2026-05-05 12:15 52.12091 13.85366 29885 ft 501 kts 59°
2026-05-05 12:15 52.13675 13.89784 30131 ft 501 kts 59°
2026-05-05 12:15 52.15429 13.94682 30562 ft 499 kts 59°
2026-05-05 12:15 52.17167 13.99547 31023 ft 495 kts 59°
2026-05-05 12:16 52.18874 14.04333 31344 ft 496 kts 58°
2026-05-05 12:16 52.20283 14.08291 31473 ft 499 kts 58°
2026-05-05 12:16 52.21998 14.13113 31707 ft 501 kts 58°
2026-05-05 12:16 52.23633 14.17724 32055 ft 499 kts 58°
2026-05-05 12:17 52.25364 14.22616 32473 ft 496 kts 58°
2026-05-05 12:17 52.26528 14.25908 32730 ft 495 kts 58°
2026-05-05 12:17 52.28528 14.31575 33086 ft 495 kts 58°
2026-05-05 12:17 52.30085 14.35998 33337 ft 496 kts 58°
2026-05-05 12:18 52.31403 14.39747 33572 ft 495 kts 58°
2026-05-05 12:18 52.33116 14.44628 33894 ft 494 kts 58°
2026-05-05 12:18 52.34245 14.47850 34099 ft 494 kts 58°
2026-05-05 12:18 52.36279 14.53662 34425 ft 493 kts 58°
2026-05-05 12:19 52.37978 14.58528 34662 ft 493 kts 59°
2026-05-05 12:19 52.39690 14.63387 34880 ft 493 kts 58°
2026-05-05 12:19 52.42544 14.71355 34879 ft 497 kts 58°
2026-05-05 12:20 52.46138 14.81374 34867 ft 492 kts 58°
2026-05-05 12:20 52.49431 14.90617 34882 ft 489 kts 58°
2026-05-05 12:21 52.52721 14.99904 34881 ft 489 kts 58°
2026-05-05 12:21 52.55553 15.07933 34885 ft 489 kts 58°
2026-05-05 12:22 52.58778 15.17109 34875 ft 489 kts 58°
2026-05-05 12:22 52.62098 15.26586 34888 ft 489 kts 58°
2026-05-05 12:23 52.65485 15.36294 34884 ft 489 kts 58°
2026-05-05 12:23 52.68870 15.46032 34880 ft 490 kts 59°
2026-05-05 12:24 52.72247 15.55785 34910 ft 490 kts 59°
2026-05-05 12:24 52.75617 15.65558 34891 ft 490 kts 59°
2026-05-05 12:25 52.78983 15.75357 34907 ft 492 kts 59°
2026-05-05 12:25 52.82312 15.85305 34865 ft 495 kts 63°
2026-05-05 12:26 52.85012 15.95634 34868 ft 486 kts 67°
2026-05-05 12:26 52.87533 16.06016 34883 ft 486 kts 67°
2026-05-05 12:27 52.90094 16.16391 34905 ft 487 kts 67°
2026-05-05 12:27 52.92652 16.26602 34899 ft 488 kts 67°
2026-05-05 12:28 52.95240 16.36932 34884 ft 489 kts 67°
2026-05-05 12:28 52.97837 16.47353 34876 ft 489 kts 68°
2026-05-05 12:29 53.00404 16.57713 34883 ft 488 kts 68°
2026-05-05 12:29 53.02975 16.68143 34881 ft 487 kts 68°
2026-05-05 12:30 53.05532 16.78565 34906 ft 486 kts 68°
2026-05-05 12:30 53.08080 16.88992 34886 ft 487 kts 68°
2026-05-05 12:31 53.10613 16.99416 34894 ft 486 kts 68°
2026-05-05 12:31 53.13133 17.09835 34887 ft 485 kts 68°
2026-05-05 12:32 53.15627 17.20197 34888 ft 484 kts 69°
2026-05-05 12:32 53.18125 17.30622 34889 ft 484 kts 69°
2026-05-05 12:33 53.20333 17.39881 34887 ft 484 kts 69°
2026-05-05 12:33 53.22812 17.50323 34890 ft 484 kts 69°
2026-05-05 12:34 53.25235 17.60580 34891 ft 484 kts 69°
2026-05-05 12:34 53.27670 17.70935 34877 ft 485 kts 69°
2026-05-05 12:35 53.30128 17.81436 34890 ft 485 kts 69°
2026-05-05 12:35 53.32572 17.91935 34896 ft 486 kts 69°
2026-05-05 12:36 53.35020 18.02498 34883 ft 488 kts 69°
2026-05-05 12:36 53.37336 18.12537 34893 ft 488 kts 69°
2026-05-05 12:37 53.39766 18.23157 34883 ft 489 kts 70°
2026-05-05 12:37 53.42158 18.33709 34870 ft 489 kts 70°
2026-05-05 12:38 53.44352 18.43426 34892 ft 488 kts 70°
2026-05-05 12:38 53.46587 18.53372 34880 ft 488 kts 70°
2026-05-05 12:39 53.48741 18.62997 34888 ft 487 kts 70°
2026-05-05 12:39 53.51113 18.73644 34891 ft 487 kts 70°
2026-05-05 12:40 53.53410 18.84220 34893 ft 487 kts 72°
2026-05-05 12:40 53.55600 18.95001 34891 ft 487 kts 72°
2026-05-05 12:41 53.57692 19.05412 34887 ft 487 kts 72°
2026-05-05 12:41 53.59869 19.16208 34891 ft 487 kts 72°
2026-05-05 12:42 53.62015 19.26861 34895 ft 487 kts 72°
2026-05-05 12:42 53.64167 19.37601 34890 ft 488 kts 72°
2026-05-05 12:43 53.66230 19.47951 34895 ft 488 kts 72°
2026-05-05 12:43 53.68380 19.58811 34895 ft 489 kts 72°
2026-05-05 12:44 53.70498 19.69555 34885 ft 489 kts 72°
2026-05-05 12:44 53.72666 19.80626 34897 ft 490 kts 73°
2026-05-05 12:45 53.74786 19.91571 34894 ft 490 kts 73°
2026-05-05 12:45 53.76896 20.02536 34890 ft 491 kts 73°
2026-05-05 12:46 53.78991 20.13474 34899 ft 491 kts 73°
2026-05-05 12:46 53.81086 20.24478 34905 ft 492 kts 73°
2026-05-05 12:47 53.83176 20.35516 34894 ft 493 kts 73°
2026-05-05 12:47 53.85245 20.46495 34890 ft 493 kts 73°
2026-05-05 12:48 53.87313 20.57552 34888 ft 492 kts 73°
2026-05-05 12:48 53.89363 20.68604 34892 ft 492 kts 73°
2026-05-05 12:49 53.91406 20.79671 34890 ft 492 kts 73°
2026-05-05 12:49 53.93435 20.90731 34895 ft 491 kts 73°
2026-05-05 12:50 53.95455 21.01803 34902 ft 491 kts 73°
2026-05-05 12:50 53.97411 21.12593 34893 ft 492 kts 73°
2026-05-05 12:51 53.99416 21.23704 34891 ft 492 kts 74°
2026-05-05 12:51 54.01419 21.34825 34896 ft 492 kts 73°
2026-05-05 12:52 54.03426 21.45969 34894 ft 493 kts 74°
2026-05-05 12:52 54.05423 21.57126 34881 ft 493 kts 74°
2026-05-05 12:53 54.07408 21.68300 34889 ft 493 kts 73°
2026-05-05 12:53 54.09358 21.79339 34885 ft 493 kts 74°
2026-05-05 12:54 54.12307 21.96174 34887 ft 492 kts 74°
2026-05-05 12:55 54.14268 22.07454 34048 ft 504 kts 74°
2026-05-05 12:55 54.15257 22.13165 33390 ft 502 kts 74°
2026-05-05 12:55 54.16242 22.18872 32684 ft 502 kts 74°
2026-05-05 12:55 54.17222 22.24579 32119 ft 499 kts 75°
2026-05-05 12:56 54.18186 22.30224 31646 ft 493 kts 75°
2026-05-05 12:56 54.19137 22.35818 31168 ft 488 kts 75°
2026-05-05 12:56 54.20076 22.41366 30721 ft 484 kts 75°
2026-05-05 12:56 54.21005 22.46861 30245 ft 480 kts 75°
2026-05-05 12:57 54.21923 22.52315 29759 ft 476 kts 75°
2026-05-05 12:57 54.22834 22.57738 29249 ft 472 kts 75°
2026-05-05 12:57 54.23722 22.63042 28746 ft 467 kts 75°
2026-05-05 12:57 54.24609 22.68353 28294 ft 463 kts 75°
2026-05-05 12:58 54.25486 22.73618 27816 ft 459 kts 75°
2026-05-05 12:58 54.26341 22.78772 27362 ft 454 kts 75°
2026-05-05 12:58 54.27199 22.83960 26892 ft 451 kts 75°
2026-05-05 12:58 54.28046 22.89097 26441 ft 447 kts 75°
2026-05-05 12:59 54.28885 22.94195 25968 ft 444 kts 75°
2026-05-05 12:59 54.29717 22.99260 25534 ft 440 kts 75°
2026-05-05 12:59 54.30539 23.04290 25090 ft 437 kts 75°
2026-05-05 13:00 54.32129 23.14265 24218 ft 432 kts 76°
2026-05-05 13:00 54.32898 23.19218 23784 ft 430 kts 76°
2026-05-05 13:01 54.35166 23.33917 22322 ft 423 kts 76°
2026-05-05 13:01 54.35913 23.38775 21893 ft 420 kts 76°
2026-05-05 13:01 54.36654 23.43598 21451 ft 417 kts 76°
2026-05-05 13:01 54.37388 23.48386 21013 ft 414 kts 76°
2026-05-05 13:02 54.38115 23.53145 20583 ft 411 kts 76°
2026-05-05 13:02 54.38834 23.57865 20156 ft 408 kts 76°
2026-05-05 13:02 54.39548 23.62561 19725 ft 405 kts 76°
2026-05-05 13:02 54.40255 23.67226 19330 ft 403 kts 76°
2026-05-05 13:03 54.40955 23.71863 18915 ft 400 kts 76°
2026-05-05 13:03 54.41651 23.76481 18510 ft 398 kts 76°
2026-05-05 13:03 54.42341 23.81079 18077 ft 397 kts 76°
2026-05-05 13:03 54.43026 23.85651 17613 ft 395 kts 76°
2026-05-05 13:04 54.43707 23.90208 17174 ft 392 kts 76°
2026-05-05 13:04 54.44380 23.94731 16762 ft 390 kts 76°
2026-05-05 13:04 54.45048 23.99231 16339 ft 388 kts 76°
2026-05-05 13:04 54.45711 24.03708 15922 ft 385 kts 76°
2026-05-05 13:05 54.46368 24.08155 15515 ft 383 kts 76°
2026-05-05 13:05 54.47021 24.12582 15120 ft 381 kts 76°
2026-05-05 13:05 54.47668 24.16989 14712 ft 379 kts 76°
2026-05-05 13:05 54.48365 24.21344 14303 ft 378 kts 69°
2026-05-05 13:06 54.49692 24.25202 13897 ft 374 kts 50°
2026-05-05 13:06 54.51297 24.28703 13478 ft 372 kts 50°
2026-05-05 13:06 54.52875 24.32147 13027 ft 362 kts 50°
2026-05-05 13:06 54.54401 24.35523 12627 ft 352 kts 51°
2026-05-05 13:07 54.55873 24.38818 12250 ft 342 kts 51°
2026-05-05 13:07 54.57297 24.42031 11892 ft 333 kts 51°
2026-05-05 13:07 54.58685 24.45175 11536 ft 326 kts 51°
2026-05-05 13:07 54.60047 24.48263 11189 ft 322 kts 51°
2026-05-05 13:08 54.61403 24.51339 10866 ft 322 kts 51°
2026-05-05 13:08 54.62297 24.53371 10640 ft 322 kts 51°
2026-05-05 13:08 54.63643 24.56431 10451 ft 316 kts 51°
2026-05-05 13:08 54.64960 24.59432 10308 ft 311 kts 51°
2026-05-05 13:09 54.66266 24.62409 10185 ft 313 kts 51°
2026-05-05 13:09 54.67591 24.65431 10070 ft 318 kts 51°
2026-05-05 13:09 54.68926 24.68482 9904 ft 317 kts 51°
2026-05-05 13:09 54.70669 24.72470 9626 ft 309 kts 52°
2026-05-05 13:10 54.71535 24.74456 9485 ft 304 kts 52°
2026-05-05 13:10 54.72804 24.77365 9350 ft 304 kts 51°
2026-05-05 13:10 54.74075 24.80286 9209 ft 302 kts 52°
2026-05-05 13:10 54.75321 24.83150 9090 ft 292 kts 51°
2026-05-05 13:11 54.76522 24.85917 8668 ft 290 kts 51°
2026-05-05 13:11 54.77748 24.88739 8090 ft 294 kts 52°
2026-05-05 13:11 54.78933 24.91473 7904 ft 283 kts 51°
2026-05-05 13:11 54.80099 24.94169 7643 ft 276 kts 51°
2026-05-05 13:12 54.81239 24.96805 7375 ft 270 kts 51°
2026-05-05 13:12 54.82352 24.99376 7127 ft 264 kts 51°
2026-05-05 13:12 54.83453 25.01924 6700 ft 267 kts 51°
2026-05-05 13:12 54.84560 25.04490 6375 ft 264 kts 51°
2026-05-05 13:13 54.85647 25.07015 6100 ft 259 kts 51°
2026-05-05 13:13 54.86488 25.09726 5801 ft 255 kts 79°
2026-05-05 13:13 54.86476 25.12717 5592 ft 244 kts 102°
2026-05-05 13:13 54.86102 25.15575 5459 ft 244 kts 107°
2026-05-05 13:14 54.85675 25.18459 5222 ft 250 kts 107°
2026-05-05 13:14 54.85247 25.21389 5118 ft 249 kts 106°
2026-05-05 13:14 54.84830 25.24307 4973 ft 248 kts 107°
2026-05-05 13:14 54.84277 25.27137 4756 ft 247 kts 115°
2026-05-05 13:15 54.83624 25.29884 4552 ft 245 kts 115°
2026-05-05 13:15 54.82977 25.32595 4298 ft 241 kts 115°
2026-05-05 13:15 54.82354 25.35241 4051 ft 232 kts 114°
2026-05-05 13:15 54.81717 25.37736 3821 ft 220 kts 126°
2026-05-05 13:16 54.80600 25.39323 3592 ft 202 kts 166°
2026-05-05 13:16 54.79275 25.39431 3457 ft 188 kts 194°
2026-05-05 13:16 54.78047 25.38755 3258 ft 184 kts 206°
2026-05-05 13:16 54.76868 25.37932 3078 ft 182 kts 205°
2026-05-05 13:17 54.75707 25.37131 2904 ft 178 kts 205°
2026-05-05 13:17 54.74545 25.36331 2790 ft 182 kts 205°
2026-05-05 13:17 54.73365 25.35507 2672 ft 181 kts 205°
2026-05-05 13:17 54.72206 25.34700 2590 ft 177 kts 205°
2026-05-05 13:18 54.71111 25.33932 2464 ft 165 kts 206°
2026-05-05 13:18 54.70102 25.33233 2295 ft 151 kts 207°
2026-05-05 13:18 54.69169 25.32587 2182 ft 147 kts 207°
2026-05-05 13:18 54.68145 25.31987 2275 ft 159 kts 203°
2026-05-05 13:19 54.67040 25.31289 2948 ft 175 kts 204°
2026-05-05 13:19 54.65777 25.30462 3527 ft 209 kts 201°
2026-05-05 13:19 54.64305 25.30335 4455 ft 223 kts 170°
2026-05-05 13:19 54.62927 25.31583 4825 ft 230 kts 137°
2026-05-05 13:20 54.62078 25.33941 4940 ft 234 kts 114°
2026-05-05 13:20 54.61540 25.36595 4974 ft 237 kts 111°
2026-05-05 13:20 54.61017 25.39303 4987 ft 239 kts 111°
2026-05-05 13:20 54.60542 25.42072 4979 ft 243 kts 99°
2026-05-05 13:21 54.60730 25.44962 4967 ft 245 kts 66°
2026-05-05 13:21 54.61744 25.47253 4986 ft 242 kts 33°
2026-05-05 13:21 54.63189 25.48708 4987 ft 241 kts 25°
2026-05-05 13:21 54.64697 25.49974 4977 ft 241 kts 20°
2026-05-05 13:22 54.66248 25.51053 4984 ft 240 kts 18°
2026-05-05 13:22 54.67800 25.52125 4986 ft 241 kts 18°
2026-05-05 13:22 54.69355 25.53213 4975 ft 242 kts 18°
2026-05-05 13:22 54.70919 25.54312 4989 ft 244 kts 18°
2026-05-05 13:23 54.72495 25.55416 4957 ft 244 kts 19°
2026-05-05 13:23 54.74053 25.56505 4961 ft 239 kts 18°
2026-05-05 13:23 54.75578 25.57580 4852 ft 236 kts 18°
2026-05-05 13:23 54.77098 25.58653 4642 ft 236 kts 19°
2026-05-05 13:24 54.78621 25.59695 4369 ft 235 kts 13°
2026-05-05 13:24 54.80205 25.59851 4101 ft 225 kts 341°
2026-05-05 13:24 54.81507 25.58537 3845 ft 216 kts 307°
2026-05-05 13:24 54.82312 25.56378 3580 ft 213 kts 296°
2026-05-05 13:25 54.82988 25.54102 3360 ft 210 kts 288°
2026-05-05 13:25 54.83174 25.51671 3135 ft 200 kts 268°
2026-05-05 13:25 54.83155 25.49312 3027 ft 190 kts 269°
2026-05-05 13:25 54.83139 25.47107 2972 ft 177 kts 268°
2026-05-05 13:26 54.83052 25.45011 2956 ft 175 kts 252°
2026-05-05 13:26 54.82411 25.43212 2983 ft 180 kts 230°
2026-05-05 13:26 54.81558 25.41612 2978 ft 180 kts 226°
2026-05-05 13:26 54.80488 25.40493 2990 ft 181 kts 206°
2026-05-05 13:27 54.79319 25.39642 2922 ft 184 kts 206°
2026-05-05 13:27 54.78127 25.38791 2785 ft 184 kts 205°
2026-05-05 13:27 54.76950 25.37971 2692 ft 180 kts 206°
2026-05-05 13:27 54.75803 25.37175 2672 ft 175 kts 205°
2026-05-05 13:28 54.74665 25.36387 2685 ft 177 kts 205°
2026-05-05 13:28 54.73558 25.35620 2556 ft 165 kts 206°
2026-05-05 13:28 54.72533 25.34909 2364 ft 160 kts 206°
2026-05-05 13:28 54.71488 25.34178 2171 ft 162 kts 205°
2026-05-05 13:29 54.70461 25.33470 1916 ft 154 kts 206°
2026-05-05 13:29 54.69485 25.32791 1725 ft 153 kts 207°
2026-05-05 13:29 54.68501 25.32110 1559 ft 152 kts 208°
2026-05-05 13:29 54.67515 25.31426 1335 ft 149 kts 207°
2026-05-05 13:30 54.66554 25.30755 1107 ft 148 kts 206°
2026-05-05 13:30 54.65594 25.30098 943 ft 152 kts 207°
2026-05-05 13:30 54.64603 25.29404 729 ft 154 kts 206°
2026-05-05 13:30 54.63659 25.28761 627 ft 129 kts 201°
2026-05-05 13:31 54.63034 25.28312 602 ft 66 kts 202°
2026-05-05 13:31 54.62724 25.28098 598 ft 43 kts 201°
2026-05-05 13:31 54.62489 25.27936 601 ft 19 kts 201°
2026-05-05 13:31 54.62419 25.27840 603 ft 13 kts 260°
2026-05-05 13:32 54.62470 25.27724 611 ft 13 kts 322°
2026-05-05 13:32 54.62547 25.27669 602 ft 13 kts 13°
2026-05-05 13:32 54.62635 25.27729 600 ft 15 kts 21°
2026-05-05 13:32 54.62750 25.27808 600 ft 21 kts 23°
2026-05-05 13:33 54.62896 25.27912 602 ft 23 kts 21°
2026-05-05 13:33 54.63040 25.28012 609 ft 22 kts 21°
2026-05-05 13:33 54.63180 25.28108 615 ft 21 kts 21°
2026-05-05 13:33 54.63317 25.28204 610 ft 21 kts 22°
2026-05-05 13:34 54.63449 25.28294 612 ft 20 kts 22°
2026-05-05 13:34 54.63564 25.28371 627 ft 15 kts
2026-05-05 13:34 54.63663 25.28342 620 ft 14 kts 347°
2026-05-05 13:34 54.63755 25.28306 631 ft 14 kts 348°
2026-05-05 13:35 54.63846 25.28272 633 ft 13 kts 347°
2026-05-05 13:35 54.63933 25.28238 634 ft 13 kts 347°
2026-05-05 13:35 54.64018 25.28205 635 ft 12 kts 347°
2026-05-05 13:35 54.64058 25.28191 639 ft 4 kts 356°
2026-05-05 13:36 54.64073 25.28226 644 ft 4 kts 76°
2026-05-05 13:36 54.64079 25.28272 643 ft 4 kts 77°
2026-05-05 13:36 54.64080 25.28280 644 ft 0 kts 77°